Weather History for Le Mars, IA

Change the Weather History Date:

Monday, February 17, 2014

  Actual Average Record
Temperature  
Mean Temperature 38 °F -  
Max Temperature 48 °F 35 °F 70 °F (1981)
Min Temperature 28 °F 13 °F -22 °F (1979)
Degree Days  
Heating Degree Days 27    
Moisture  
Dew Point 28 °F    
Average Humidity 75    
Maximum Humidity 100    
Minimum Humidity 46    
Precipitation  
Precipitation 0.00 in - - ()
Sea Level Pressure  
Sea Level Pressure 29.81 in    
Wind  
Wind Speed 15 mph (SW)    
Max Wind Speed 24 mph    
Max Gust Speed 38 mph    
Visibility 8 miles    
Events Snow    
Averages and records for this station are not official NWS values.
T = Trace of Precipitation, MM = Missing Value Source: NWS Daily Summary

Daily Weather History Graph

Daily Weather History Graph

Search for Another Location

Airport:

Trip Planner

Search our weather history database for the weather conditions in past years. The results will help you decide how hot, cold, wet, or windy it might be!

Date:

Astronomy

Feb. 17, 2014 Rise Set
Actual Time 7:19 AM CST 5:59 PM CST
Civil Twilight 6:50 AM CST 6:28 PM CST
Nautical Twilight 6:17 AM CST 7:01 PM CST
Astronomical Twilight 5:44 AM CST 7:33 PM CST
Moon 9:00 PM CST (2/17) 8:15 AM CST (2/17)
Length of Visible Light 11h 37m
Length of Day
10h 40m
Waning Gibbous, 93% of the Moon is Illuminated
Feb 17
Waning Gibbous
Feb 22
Last Quarter
Mar 1
New
Mar 8
First Quarter
Mar 16
Full

Hourly Weather History & Observations

Time (CST) Temp. Windchill Dew Point Humidity Pressure Visibility Wind Dir Wind Speed Gust Speed Precip Events Conditions
12:15 AM 28.4 °F 15.4 °F 23.0 °F 80% 29.79 in 8.0 mi SSE 19.6 mph - N/A   Overcast
12:35 AM 28.4 °F 15.8 °F 24.8 °F 86% 29.78 in 5.0 mi SSE 18.4 mph 27.6 mph N/A   Overcast
12:55 AM 30.2 °F 17.4 °F 26.6 °F 86% 29.77 in 6.0 mi South 20.7 mph - N/A   Overcast
1:15 AM 30.2 °F 18.1 °F 26.6 °F 86% 29.77 in 5.0 mi South 18.4 mph 26.5 mph N/A   Overcast
1:35 AM 30.2 °F 17.1 °F 26.6 °F 86% 29.74 in 6.0 mi SSE 21.9 mph 28.8 mph N/A   Overcast
1:55 AM 30.2 °F 17.4 °F 26.6 °F 86% 29.74 in 6.0 mi SSE 20.7 mph 27.6 mph N/A   Overcast
2:15 AM 32.0 °F 21.2 °F 28.4 °F 87% 29.76 in 4.0 mi South 16.1 mph 24.2 mph N/A   Overcast
2:35 AM 32.0 °F 19.5 °F 28.4 °F 87% 29.75 in 3.0 mi South 21.9 mph - N/A Snow Light Snow
2:55 AM 30.2 °F 17.8 °F 28.4 °F 93% 29.76 in 1.0 mi South 19.6 mph - N/A   Overcast
3:15 AM 30.2 °F 17.8 °F 28.4 °F 93% 29.76 in 2.0 mi South 19.6 mph 31.1 mph N/A   Overcast
3:35 AM 30.2 °F 16.8 °F 28.4 °F 93% 29.75 in 0.5 mi South 23.0 mph - N/A Snow Light Snow
3:55 AM 28.4 °F 16.2 °F 28.4 °F 100% 29.74 in 0.5 mi South 17.3 mph - N/A   Overcast
4:15 AM 28.4 °F 15.4 °F 28.4 °F 100% 29.74 in 2.0 mi South 19.6 mph - N/A   Overcast
4:35 AM 28.4 °F 16.6 °F 28.4 °F 100% 29.74 in 1.2 mi SSW 16.1 mph - N/A Snow Light Snow
4:55 AM 30.2 °F 18.9 °F 28.4 °F 93% 29.75 in 3.0 mi SSW 16.1 mph - N/A   Overcast
5:15 AM 30.2 °F 19.3 °F 28.4 °F 93% 29.77 in 4.0 mi SSW 15.0 mph - N/A   Overcast
5:35 AM 32.0 °F 24.8 °F 30.2 °F 93% 29.77 in 6.0 mi SW 8.1 mph - N/A   Overcast
5:55 AM 33.8 °F 23.9 °F 30.2 °F 87% 29.78 in 10.0 mi West 15.0 mph 24.2 mph N/A   Overcast
6:15 AM 33.8 °F 24.3 °F 28.4 °F 81% 29.77 in 10.0 mi WNW 13.8 mph 19.6 mph N/A   Overcast
6:35 AM 32.0 °F 24.8 °F 28.4 °F 87% 29.77 in 10.0 mi WNW 8.1 mph 18.4 mph N/A   Mostly Cloudy
6:55 AM 32.0 °F 28.7 °F 28.4 °F 87% 29.77 in 10.0 mi NW 3.5 mph - N/A   Partly Cloudy
7:15 AM 32.0 °F 26.4 °F 28.4 °F 87% 29.78 in 10.0 mi West 5.8 mph - N/A   Clear
7:35 AM 32.0 °F 25.6 °F 28.4 °F 87% 29.79 in 10.0 mi West 6.9 mph - N/A   Clear
7:55 AM 32.0 °F 28.7 °F 28.4 °F 87% 29.80 in 10.0 mi West 3.5 mph - N/A   Clear
8:15 AM 32.0 °F 27.5 °F 28.4 °F 87% 29.80 in 10.0 mi Variable 4.6 mph - N/A   Clear
8:35 AM 32.0 °F 27.5 °F 30.2 °F 93% 29.81 in 10.0 mi WSW 4.6 mph - N/A   Clear
8:55 AM 32.0 °F 24.8 °F 30.2 °F 93% 29.81 in 10.0 mi WSW 8.1 mph - N/A   Clear
9:15 AM 33.8 °F 25.8 °F 32.0 °F 93% 29.81 in 10.0 mi West 10.4 mph - N/A   Clear
9:35 AM 35.6 °F 28.0 °F 32.0 °F 87% 29.82 in 10.0 mi West 10.4 mph 18.4 mph N/A   Clear
9:55 AM 35.6 °F 27.1 °F 32.0 °F 87% 29.83 in 10.0 mi West 12.7 mph 19.6 mph N/A   Clear
10:15 AM 35.6 °F 27.5 °F 32.0 °F 87% 29.83 in 10.0 mi West 11.5 mph 19.6 mph N/A   Clear
10:35 AM 37.4 °F 29.8 °F 30.2 °F 75% 29.84 in 10.0 mi West 11.5 mph 18.4 mph N/A   Clear
10:55 AM 37.4 °F 29.3 °F 30.2 °F 75% 29.85 in 10.0 mi WNW 12.7 mph - N/A   Clear
11:15 AM 37.4 °F 29.3 °F 30.2 °F 75% 29.85 in 10.0 mi WNW 12.7 mph 21.9 mph N/A   Clear
11:35 AM 39.2 °F 31.2 °F 30.2 °F 70% 29.85 in 10.0 mi West 13.8 mph 19.6 mph N/A   Clear
11:55 AM 39.2 °F 30.8 °F 30.2 °F 70% 29.85 in 10.0 mi WNW 15.0 mph 20.7 mph N/A   Clear
12:15 PM 41.0 °F 33.5 °F 32.0 °F 70% 29.85 in 10.0 mi WNW 13.8 mph 23.0 mph N/A   Clear
12:35 PM 41.0 °F 32.2 °F 32.0 °F 70% 29.84 in 10.0 mi WNW 18.4 mph 25.3 mph N/A   Clear
12:55 PM 42.8 °F 34.8 °F 32.0 °F 66% 29.83 in 10.0 mi West 17.3 mph 28.8 mph N/A   Clear
1:15 PM 42.8 °F 34.5 °F 32.0 °F 66% 29.82 in 10.0 mi WNW 18.4 mph 31.1 mph N/A   Clear
1:35 PM 44.6 °F 36.6 °F 32.0 °F 61% 29.82 in 10.0 mi West 19.6 mph 32.2 mph N/A   Clear
1:55 PM 44.6 °F 36.1 °F 32.0 °F 61% 29.83 in 10.0 mi WNW 21.9 mph 29.9 mph N/A   Clear
2:15 PM 46.4 °F 38.1 °F 30.2 °F 53% 29.83 in 10.0 mi WNW 24.2 mph 33.4 mph N/A   Clear
2:35 PM 46.4 °F 38.1 °F 30.2 °F 53% 29.83 in 10.0 mi WNW 24.2 mph 38.0 mph N/A   Clear
2:55 PM 46.4 °F 38.7 °F 30.2 °F 53% 29.83 in 10.0 mi WNW 20.7 mph 32.2 mph N/A   Clear
3:15 PM 46.4 °F 38.3 °F 28.4 °F 50% 29.83 in 10.0 mi WNW 23.0 mph 32.2 mph N/A   Clear
3:35 PM 48.2 °F - 28.4 °F 46% 29.83 in 10.0 mi WNW 17.3 mph - N/A   Clear
3:55 PM 46.4 °F 39.5 °F 26.6 °F 46% 29.83 in 10.0 mi WNW 17.3 mph 25.3 mph N/A   Clear
4:15 PM 46.4 °F 40.4 °F 26.6 °F 46% 29.83 in 10.0 mi WNW 13.8 mph 20.7 mph N/A   Clear
4:35 PM 46.4 °F 41.5 °F 26.6 °F 46% 29.84 in 10.0 mi WNW 10.4 mph 19.6 mph N/A   Clear
4:55 PM 46.4 °F 42.9 °F 28.4 °F 50% 29.84 in 10.0 mi WNW 6.9 mph 12.7 mph N/A   Clear
5:15 PM 44.6 °F 41.4 °F 28.4 °F 53% 29.85 in 10.0 mi West 5.8 mph - N/A   Clear
5:35 PM 44.6 °F 43.1 °F 28.4 °F 53% 29.84 in 10.0 mi West 3.5 mph - N/A   Clear
5:55 PM 41.0 °F - 28.4 °F 61% 29.84 in 10.0 mi Calm Calm - N/A   Clear
6:15 PM 39.2 °F 37.0 °F 26.6 °F 61% 29.85 in 10.0 mi SSW 3.5 mph - N/A   Clear
6:35 PM 37.4 °F 33.8 °F 26.6 °F 65% 29.85 in 10.0 mi South 4.6 mph - N/A   Clear
6:55 PM 35.6 °F 31.7 °F 24.8 °F 65% 29.86 in 10.0 mi SSW 4.6 mph - N/A   Clear
7:15 PM 33.8 °F 29.6 °F 24.8 °F 70% 29.85 in 10.0 mi SSW 4.6 mph - N/A   Clear
7:35 PM 35.6 °F 31.7 °F 24.8 °F 65% 29.85 in 10.0 mi SSW 4.6 mph - N/A   Clear
7:55 PM 35.6 °F 29.9 °F 24.8 °F 65% 29.84 in 10.0 mi South 6.9 mph - N/A   Clear
8:15 PM 37.4 °F 32.8 °F 24.8 °F 60% 29.83 in 10.0 mi SSE 5.8 mph - N/A   Clear
8:35 PM 30.2 °F 24.3 °F 24.8 °F 80% 29.82 in 10.0 mi South 5.8 mph - N/A   Clear
8:55 PM 32.0 °F 27.5 °F 24.8 °F 75% 29.81 in 10.0 mi South 4.6 mph - N/A   Clear
9:15 PM 32.0 °F 27.5 °F 24.8 °F 75% 29.82 in 10.0 mi SSE 4.6 mph - N/A   Clear
9:35 PM 32.0 °F 26.4 °F 24.8 °F 75% 29.82 in 10.0 mi South 5.8 mph - N/A   Clear
9:55 PM 32.0 °F 26.4 °F 24.8 °F 75% 29.81 in 10.0 mi South 5.8 mph - N/A   Clear
10:15 PM 32.0 °F 27.5 °F 24.8 °F 75% 29.80 in 10.0 mi South 4.6 mph - N/A   Clear
10:35 PM 32.0 °F 28.7 °F 24.8 °F 75% 29.80 in 10.0 mi South 3.5 mph - N/A   Clear
10:55 PM 33.8 °F 26.4 °F 24.8 °F 70% 29.79 in 10.0 mi South 9.2 mph - N/A   Clear
11:15 PM 33.8 °F 27.7 °F 23.0 °F 65% 29.78 in 10.0 mi South 6.9 mph - N/A   Clear
11:35 PM 33.8 °F 25.8 °F 23.0 °F 65% 29.77 in 10.0 mi South 10.4 mph - N/A   Clear
11:55 PM 33.8 °F 27.0 °F 23.0 °F 65% 29.75 in 10.0 mi SSE 8.1 mph - N/A   Clear